TimeCDT,TemperatureF,Dew PointF,Humidity,Sea Level PressureIn,VisibilityMPH,Wind Direction,Wind SpeedMPH,Gust SpeedMPH,PrecipitationIn,Events,Conditions,WindDirDegrees,DateUTC
12:53 AM,75.9,73.9,94,29.88,10.0,SSE,4.6,-,N/A,,Scattered Clouds,150,2013-10-01 05:53:00
1:53 AM,75.9,73.9,94,29.89,10.0,Calm,Calm,-,N/A,,Partly Cloudy,0,2013-10-01 06:53:00
2:53 AM,77.0,73.9,90,29.88,10.0,Calm,Calm,-,N/A,,Mostly Cloudy,0,2013-10-01 07:53:00
3:53 AM,77.0,73.9,90,29.88,10.0,SE,3.5,-,N/A,,Overcast,130,2013-10-01 08:53:00
4:53 AM,77.0,73.9,90,29.87,10.0,Calm,Calm,-,N/A,,Scattered Clouds,0,2013-10-01 09:53:00
5:53 AM,77.0,73.9,90,29.88,10.0,Calm,Calm,-,N/A,,Mostly Cloudy,0,2013-10-01 10:53:00
6:53 AM,78.1,75.0,90,29.91,10.0,East,4.6,-,N/A,,Mostly Cloudy,90,2013-10-01 11:53:00
7:53 AM,78.1,75.0,90,29.90,10.0,East,3.5,-,N/A,,Scattered Clouds,100,2013-10-01 12:53:00
8:53 AM,79.0,72.0,79,29.94,10.0,SW,12.7,19.6,0.00,Rain,Light Rain,220,2013-10-01 13:53:00
9:07 AM,77.0,69.8,78,29.90,10.0,SSE,6.9,-,0.00,,Mostly Cloudy,160,2013-10-01 14:07:00
9:53 AM,77.0,66.0,69,29.93,10.0,Calm,Calm,-,0.00,,Scattered Clouds,0,2013-10-01 14:53:00
10:53 AM,79.0,70.0,74,29.96,10.0,South,5.8,-,N/A,,Overcast,180,2013-10-01 15:53:00
11:53 AM,81.0,72.0,74,29.96,10.0,Variable,4.6,-,N/A,,Mostly Cloudy,0,2013-10-01 16:53:00
12:53 PM,82.0,70.0,67,29.94,10.0,SSE,9.2,-,N/A,,Scattered Clouds,160,2013-10-01 17:53:00
1:53 PM,82.0,71.1,69,29.92,10.0,South,9.2,-,N/A,,Scattered Clouds,170,2013-10-01 18:53:00
2:53 PM,86.0,70.0,59,29.91,10.0,SE,9.2,-,N/A,,Scattered Clouds,130,2013-10-01 19:53:00
3:53 PM,84.0,72.0,67,29.91,10.0,South,11.5,-,N/A,,Scattered Clouds,170,2013-10-01 20:53:00
4:53 PM,82.9,73.0,72,29.89,10.0,SSE,8.1,-,N/A,,Mostly Cloudy,150,2013-10-01 21:53:00
5:53 PM,82.0,71.1,69,29.90,10.0,SE,11.5,-,N/A,,Mostly Cloudy,140,2013-10-01 22:53:00
6:53 PM,80.1,70.0,71,29.91,10.0,SSE,9.2,-,N/A,,Mostly Cloudy,150,2013-10-01 23:53:00
7:53 PM,78.1,71.1,79,29.91,10.0,SE,8.1,-,N/A,,Scattered Clouds,130,2013-10-02 00:53:00
8:53 PM,77.0,72.0,84,29.93,10.0,ESE,5.8,-,N/A,,Scattered Clouds,110,2013-10-02 01:53:00
9:53 PM,77.0,72.0,84,29.94,10.0,ESE,4.6,-,N/A,,Scattered Clouds,120,2013-10-02 02:53:00
10:53 PM,75.9,72.0,87,29.95,10.0,Calm,Calm,-,N/A,,Scattered Clouds,0,2013-10-02 03:53:00
11:53 PM,75.9,72.0,87,29.96,10.0,ESE,3.5,-,N/A,,Scattered Clouds,120,2013-10-02 04:53:00